When you browse on this site, cookies collect data to enhance your experience and personalize the content and advertising you see.
Visit our Privacy Policy to learn more. By continuing to use the site, you agree to this use of cookies and data.

Météo par heure à Franceville

Ce jour, 7 Août, Vendredi

Heure Température Précipitation Vent Pression Humidité
00:00 +26°C° 0 mm 1 m/s 734 mmHg 69%
01:00 +25°C° 0 mm 1 m/s 733 mmHg 73%
02:00 +24°C° 0 mm 1 m/s 733 mmHg 75%
03:00 +24°C° 0 mm 1 m/s 733 mmHg 77%
04:00 +23°C° 0 mm 1 m/s 733 mmHg 79%
05:00 +24°C° 0 mm 1 m/s 733 mmHg 79%
06:00 +24°C° 0 mm 1 m/s 733 mmHg 79%
07:00 +24°C° 0 mm 1 m/s 734 mmHg 77%
08:00 +26°C° 0 mm 1 m/s 734 mmHg 68%
09:00 +28°C° 0 mm 1 m/s 735 mmHg 59%
10:00 +31°C° 0 mm 1 m/s 735 mmHg 50%
11:00 +32°C° 0 mm 1 m/s 735 mmHg 46%
12:00 +34°C° 0 mm 1 m/s 734 mmHg 43%
13:00 +35°C° 0 mm 1 m/s 733 mmHg 38%
14:00 +35°C° 0 mm 1 m/s 732 mmHg 39%
15:00 +34°C° 0 mm 1 m/s 732 mmHg 40%
16:00 +34°C° 0 mm 1 m/s 731 mmHg 40%
17:00 +33°C° 0 mm 1 m/s 732 mmHg 44%
18:00 +30°C° 0 mm 0 m/s 732 mmHg 47%
19:00 +29°C° 0 mm 0 m/s 732 mmHg 50%
20:00 +30°C° 0 mm 1 m/s 733 mmHg 53%
21:00 +30°C° 0 mm 1 m/s 733 mmHg 55%
22:00 +29°C° 0 mm 1 m/s 734 mmHg 57%
23:00 +28°C° 0 mm 1 m/s 733 mmHg 61%

Demain, 8 Août, Samedi

Heure Température Précipitation Vent Pression Humidité
00:00 +28°C° 0 mm 1 m/s 733 mmHg 65%
01:00 +27°C° 0 mm 1 m/s 733 mmHg 69%
02:00 +26°C° 0 mm 1 m/s 733 mmHg 71%
03:00 +26°C° 0 mm 1 m/s 733 mmHg 72%
04:00 +26°C° 0 mm 1 m/s 733 mmHg 74%
05:00 +26°C° 0 mm 1 m/s 733 mmHg 75%
06:00 +25°C° 0 mm 1 m/s 734 mmHg 75%
07:00 +25°C° 0 mm 1 m/s 734 mmHg 76%
08:00 +27°C° 0 mm 1 m/s 734 mmHg 68%
09:00 +29°C° 0 mm 1 m/s 735 mmHg 61%
10:00 +31°C° 0 mm 1 m/s 735 mmHg 53%
11:00 +33°C° 0 mm 1 m/s 735 mmHg 49%
12:00 +34°C° 0 mm 1 m/s 734 mmHg 44%
13:00 +36°C° 0 mm 1 m/s 733 mmHg 40%
14:00 +35°C° 0 mm 1 m/s 732 mmHg 41%
15:00 +34°C° 0 mm 1 m/s 731 mmHg 42%
16:00 +35°C° 0 mm 2 m/s 730 mmHg 44%
17:00 +33°C° 0 mm 1 m/s 731 mmHg 47%
18:00 +32°C° 0 mm 1 m/s 731 mmHg 50%
19:00 +31°C° 0 mm 1 m/s 732 mmHg 54%
20:00 +30°C° 0.2 mm 1 m/s 732 mmHg 60%
21:00 +29°C° 0.2 mm 1 m/s 732 mmHg 66%
22:00 +27°C° 0.2 mm 1 m/s 733 mmHg 72%
23:00 +27°C° 0 mm 1 m/s 733 mmHg 73%

Après-demain, 9 Août, Dimanche

Heure Température Précipitation Vent Pression Humidité
00:00 +27°C° 0 mm 1 m/s 733 mmHg 73%
01:00 +26°C° 0 mm 1 m/s 732 mmHg 74%
02:00 +26°C° 0 mm 1 m/s 732 mmHg 76%
03:00 +25°C° 0 mm 1 m/s 732 mmHg 78%
04:00 +24°C° 0 mm 1 m/s 732 mmHg 80%
05:00 +24°C° 0 mm 1 m/s 732 mmHg 80%
06:00 +24°C° 0 mm 1 m/s 733 mmHg 79%
07:00 +25°C° 0 mm 1 m/s 733 mmHg 79%
08:00 +26°C° 0 mm 1 m/s 733 mmHg 74%
09:00 +27°C° 0 mm 1 m/s 734 mmHg 69%
10:00 +28°C° 0 mm 1 m/s 734 mmHg 64%
11:00 +28°C° 0 mm 1 m/s 734 mmHg 62%
12:00 +29°C° 0 mm 2 m/s 733 mmHg 60%
13:00 +29°C° 0 mm 2 m/s 732 mmHg 58%
14:00 +29°C° 0 mm 2 m/s 732 mmHg 58%
15:00 +29°C° 0 mm 2 m/s 731 mmHg 57%
16:00 +29°C° 0 mm 2 m/s 731 mmHg 56%
17:00 +28°C° 0 mm 2 m/s 731 mmHg 60%
18:00 +27°C° 0 mm 1 m/s 731 mmHg 63%
19:00 +27°C° 0 mm 1 m/s 732 mmHg 67%
20:00 +26°C° 0 mm 1 m/s 732 mmHg 69%
21:00 +26°C° 0 mm 1 m/s 732 mmHg 71%
22:00 +25°C° 0 mm 1 m/s 733 mmHg 73%
23:00 +25°C° 0 mm 1 m/s 733 mmHg 72%

10 Août, Lundi

Heure Température Précipitation Vent Pression Humidité
00:00 +25°C° 0 mm 1 m/s 733 mmHg 71%
01:00 +25°C° 0 mm 1 m/s 733 mmHg 70%
02:00 +25°C° 0 mm 1 m/s 732 mmHg 74%
03:00 +24°C° 0 mm 1 m/s 732 mmHg 77%
04:00 +23°C° 0 mm 1 m/s 732 mmHg 80%
05:00 +23°C° 0 mm 1 m/s 732 mmHg 80%
06:00 +23°C° 0 mm 1 m/s 732 mmHg 81%
07:00 +23°C° 0 mm 1 m/s 733 mmHg 81%
08:00 +26°C° 0 mm 1 m/s 733 mmHg 70%
09:00 +28°C° 0 mm 1 m/s 733 mmHg 59%
10:00 +31°C° 0 mm 1 m/s 734 mmHg 49%
11:00 +33°C° 0 mm 1 m/s 733 mmHg 43%
12:00 +34°C° 0 mm 1 m/s 732 mmHg 38%
13:00 +36°C° 0 mm 1 m/s 731 mmHg 32%
14:00 +36°C° 0 mm 1 m/s 731 mmHg 32%
15:00 +36°C° 0 mm 1 m/s 730 mmHg 32%
16:00 +36°C° 0 mm 1 m/s 729 mmHg 32%
17:00 +34°C° 0 mm 1 m/s 730 mmHg 37%
18:00 +33°C° 0 mm 1 m/s 730 mmHg 41%
19:00 +31°C° 0 mm 1 m/s 730 mmHg 46%
20:00 +30°C° 0 mm 2 m/s 731 mmHg 50%
21:00 +29°C° 0 mm 2 m/s 732 mmHg 55%
22:00 +27°C° 0 mm 2 m/s 732 mmHg 59%
23:00 +26°C° 0 mm 2 m/s 732 mmHg 63%

11 Août, Mardi

Heure Température Précipitation Vent Pression Humidité
00:00 +25°C° 0 mm 2 m/s 732 mmHg 67%
01:00 +24°C° 0 mm 2 m/s 732 mmHg 71%
02:00 +24°C° 0 mm 2 m/s 732 mmHg 73%
03:00 +23°C° 0 mm 1 m/s 732 mmHg 75%
04:00 +23°C° 0 mm 1 m/s 732 mmHg 78%
05:00 +23°C° 0 mm 1 m/s 732 mmHg 77%
06:00 +23°C° 0 mm 1 m/s 732 mmHg 77%
07:00 +23°C° 0 mm 1 m/s 733 mmHg 76%
08:00 +26°C° 0 mm 1 m/s 733 mmHg 67%
09:00 +29°C° 0 mm 1 m/s 733 mmHg 57%
10:00 +31°C° 0 mm 1 m/s 734 mmHg 47%
11:00 +33°C° 0 mm 1 m/s 733 mmHg 43%
12:00 +35°C° 0 mm 1 m/s 732 mmHg 38%
13:00 +36°C° 0 mm 1 m/s 731 mmHg 34%
14:00 +37°C° 0 mm 1 m/s 731 mmHg 33%
15:00 +37°C° 0 mm 1 m/s 730 mmHg 32%
16:00 +37°C° 0 mm 1 m/s 729 mmHg 31%
17:00 +35°C° 0 mm 1 m/s 730 mmHg 36%
18:00 +33°C° 0 mm 1 m/s 730 mmHg 40%
19:00 +32°C° 0 mm 1 m/s 730 mmHg 44%
20:00 +31°C° 0 mm 1 m/s 731 mmHg 46%
21:00 +30°C° 0 mm 1 m/s 731 mmHg 48%
22:00 +30°C° 0 mm 1 m/s 732 mmHg 50%
23:00 +29°C° 0 mm 2 m/s 732 mmHg 51%

12 Août, Mercredi

Heure Température Précipitation Vent Pression Humidité
00:00 +28°C° 0 mm 2 m/s 732 mmHg 52%
01:00 +27°C° 0 mm 3 m/s 732 mmHg 54%
02:00 +26°C° 0 mm 2 m/s 732 mmHg 59%
03:00 +25°C° 0 mm 1 m/s 732 mmHg 63%
04:00 +24°C° 0 mm 1 m/s 732 mmHg 68%
05:00 +22°C° 0 mm 0 m/s 732 mmHg 69%
06:00 +22°C° 0 mm 0 m/s 733 mmHg 70%
07:00 +22°C° 0 mm 0 m/s 733 mmHg 70%
08:00 +25°C° 0 mm 0 m/s 733 mmHg 62%
09:00 +29°C° 0 mm 1 m/s 733 mmHg 55%
10:00 +32°C° 0 mm 1 m/s 734 mmHg 47%
11:00 +34°C° 0 mm 2 m/s 733 mmHg 42%
12:00 +36°C° 0 mm 2 m/s 732 mmHg 38%
13:00 +38°C° 0 mm 2 m/s 731 mmHg 34%
14:00 +37°C° 0 mm 2 m/s 730 mmHg 34%
15:00 +37°C° 0 mm 2 m/s 730 mmHg 35%
16:00 +36°C° 0 mm 2 m/s 729 mmHg 35%
17:00 +34°C° 0 mm 1 m/s 729 mmHg 39%
18:00 +32°C° 0 mm 1 m/s 730 mmHg 43%
19:00 +31°C° 0 mm 1 m/s 730 mmHg 47%
20:00 +30°C° 0 mm 1 m/s 730 mmHg 51%
21:00 +29°C° 0 mm 1 m/s 731 mmHg 54%
22:00 +28°C° 0 mm 1 m/s 732 mmHg 58%
23:00 +28°C° 0 mm 1 m/s 732 mmHg 60%
Voir plus